Location: Chequamegon National Forest
(46.1070°N, 90.8420°W)
Time: 13:45:54
(UTC-05:00)

Daily predictions for brighter satellites

Satellite Brightness Start Highest point End
(mag) Time Altitude Azimuth Time Altitude Azimuth Time Altitude Azimuth
Cosmos 1766 3.5 19:10:27 10° SSE 19:14:16 47° E 19:18:07 10° NNE
Helios 1B rocket 3.6 19:13:48 10° NE 19:16:59 21° E 19:20:09 10° SE
SL-16 R/B 2.3 19:11:26 10° S 19:17:01 63° ESE 19:22:40 10° NNE
Cosmos 1812 Rocket 4.4 19:13:45 10° SSW 19:18:00 56° WNW 19:22:19 10° N
CENTAUR R/B 4.0 19:15:40 10° SE 19:18:18 13° ESE 19:21:03 10° ENE
Cosmos 1766 Rocket 3.9 19:15:54 10° N 19:20:06 42° ENE 19:24:14 10° SSE
METEOR-M 4.4 19:17:30 10° SE 19:22:37 49° ENE 19:27:46 10° N
NOSS 3-2 (C) 3.7 19:18:54 10° SSW 19:24:48 53° ESE 19:31:13 10° NE
Cosmos 1378 3.1 19:21:24 10° N 19:25:09 83° E 19:28:54 10° S
Cosmos 1076 Rocket 3.6 19:21:32 10° N 19:25:49 59° ENE 19:30:06 10° SSE
Spot 1 4.4 19:24:33 10° SSE 19:29:06 53° ENE 19:33:24 10° N
Spot 2 Rocket 3.7 19:24:47 10° SE 19:29:38 49° ENE 19:34:30 10° N
SAR-Lupe-4 3.6 19:26:26 10° SSE 19:30:01 86° W 19:33:37 10° NNW
Cosmos 2219 Rocket 4.0 19:27:11 10° WSW 19:32:17 34° NW 19:37:26 10° NNE
Cosmos-2242 3.6 19:31:50 10° SSE 19:35:50 36° E 19:39:52 10° NNE
ATLAS CENTAUR R/B 4.1 19:33:05 10° WNW 19:36:11 20° WSW 19:39:06 10° SSW
Meteor 1-28 Rocket 3.2 19:32:28 10° NNE 19:36:11 59° E 19:39:51 10° S
FENGYUN 3A 4.3 19:31:35 10° SE 19:36:24 35° ENE 19:41:14 10° N
Cosmos 192 4.3 19:32:22 10° S 19:37:17 68° ESE 19:42:14 10° NNE
Cosmos 2034 Rocket 4.1 19:32:31 10° SSE 19:38:34 53° E 19:44:42 10° NNE
Cosmos 1464 Rocket 3.9 19:33:29 10° S 19:39:41 71° E 19:45:50 10° NNE
CZ-4C R/B 3.3 19:36:12 10° WSW 19:41:29 47° NW 19:47:30 10° NNE
H-2A R/B 4.0 19:39:09 11° ESE 19:42:05 24° ENE 19:45:13 10° NNE
Cosmos 1805 3.5 19:39:17 10° SSE 19:43:02 45° E 19:46:49 10° NNE
ISS -1.3 19:42:24 10° SSE 19:43:54 13° SE 19:44:06 13° SE
Cosmos 1953 2.5 19:40:34 10° SSE 19:44:23 48° E 19:48:14 10° NNE
BREEZE-M DEB (TANK) 4.2 19:29:04 10° W 19:47:50 89° S 19:52:04 16° E
ALOS 2.7 19:43:50 10° SE 19:48:10 40° ENE 19:52:33 10° N
HJ-1C 3.3 19:46:44 10° SSE 19:50:04 71° ENE 19:53:27 10° N
Cosmos 1408 Rocket 3.6 19:48:33 10° N 19:52:57 82° W 19:57:15 10° S
Cosmos 1500 Rocket 4.2 19:49:08 10° N 19:53:13 35° ENE 19:57:01 11° SE
Cosmos 1943 Rocket 3.6 19:51:23 10° N 19:55:35 21° NE 19:58:06 16° ENE
Cosmos 1842 Rocket 4.3 19:51:54 10° SSE 19:55:37 28° E 19:59:22 10° NNE
Cosmos 2369 Rocket 2.8 19:50:39 10° NNW 19:55:57 39° NE 19:59:45 17° ESE
USA 215 3.5 19:51:26 10° ENE 19:57:43 47° SE 20:03:57 10° SSW
Cosmos 1943 4.1 19:55:13 10° SSE 19:59:39 24° ESE 20:04:04 10° NE
USA 186 3.5 20:01:16 12° NNE 20:01:16 12° NNE 20:01:33 10° NNE
Cosmos 1603 3.7 19:58:56 10° S 20:04:32 59° ESE 20:10:12 10° NNE
Aureole 2 Rocket 4.3 20:01:16 10° SW 20:05:24 42° WNW 20:09:26 10° N
Cosmos 1470 3.4 20:03:03 10° SSE 20:06:33 33° E 20:10:04 10° NNE
Cosmos 1733 4.0 20:08:47 26° ESE 20:09:50 30° E 20:13:14 10° NNE
SL-8 R/B 4.3 20:06:06 10° SSW 20:10:26 36° SE 20:12:17 26° ESE
SeaSat 1 4.1 20:15:13 15° SSE 20:15:13 15° SSE 20:16:30 10° SSE
Meteor 1-29 2.8 20:09:16 10° NNE 20:12:47 71° ESE 20:16:17 10° S
CZ-4B DEB 2.7 20:14:31 22° SSE 20:16:27 70° ENE 20:19:43 10° N
ERS-1 Rocket 4.0 20:15:22 24° E 20:16:28 26° ENE 20:20:37 10° N
Resurs 1-3 3.7 20:13:08 10° S 20:17:31 77° WSW 20:21:56 10° NNW
Helios 1A 3.4 20:14:02 10° S 20:18:12 65° WSW 20:22:25 10° NNW
Cosmos 1674 2.6 20:14:58 10° N 20:18:50 66° E 20:21:24 20° SSE
Cosmos 724 4.3 20:13:53 10° SSW 20:19:49 80° ESE 20:25:57 10° NE
Resurs 01 Rocket 2.3 20:16:32 10° S 20:20:54 56° W 20:25:19 10° NNW
Cosmos 1743 Rocket 3.6 20:17:41 10° N 20:22:10 84° W 20:26:34 10° S
Cosmos 1758 4.2 20:23:32 10° SSW 20:27:32 54° WNW 20:31:35 10° N
Abrixas 3.8 20:27:39 10° SW 20:29:32 28° S 20:29:32 28° S
Cosmos 1346 4.4 20:29:28 10° NNW 20:32:17 39° W 20:34:43 13° SSW
NOSS 3-2 (A) 4.3 20:30:34 10° WSW 20:36:36 53° NW 20:43:17 10° NE
Meteor 1-16 Rocket 4.4 20:36:59 38° ESE 20:37:35 39° E 20:42:31 10° NNE
Meteor 1-11 4.5 20:32:38 10° N 20:38:17 49° ENE 20:40:07 36° ESE
ATLAS 5 CENTAUR R/B 2.5 20:35:13 10° SW 20:40:00 56° NW 20:45:16 10° NNE
Cosmos 839 Rocket 4.2 20:32:46 10° NW 20:40:47 79° NE 20:44:15 31° SE
Nadezhda 4 Rocket 4.4 20:37:16 10° NNW 20:43:29 64° W 20:49:36 10° S
GP-B 3.0 20:40:08 10° N 20:44:35 67° E 20:45:48 45° SSE
Cosmos 2279 Rocket 4.3 20:46:27 39° ESE 20:47:12 41° E 20:52:56 10° NNE
ASTEX 1 3.5 20:44:43 10° N 20:49:39 74° W 20:54:31 10° SSW
Cosmos 1092 Rocket 4.1 20:45:21 10° NNW 20:51:34 75° W 20:57:41 10° S
Helios 1B rocket 4.0 20:48:38 10° N 20:52:25 36° WNW 20:56:12 10° SW
Cosmos 1328 3.6 20:49:11 10° N 20:53:08 81° ENE 20:53:08 81° ENE
Cosmos 1655 Rocket 4.0 20:47:44 10° N 20:53:56 62° ENE 20:55:58 41° SE
Cosmos 1331 Rocket 4.1 20:48:40 10° NNW 20:53:56 57° ENE 20:54:37 53° E
Cosmos 1939 Rocket 3.9 20:57:56 33° NNE 20:57:56 33° NNE 21:00:28 10° N
SL-24 R/B - RUBIN 2 4.5 20:52:55 10° NW 20:59:39 69° NE 21:01:21 49° ESE
Cosmos 2142 Rocket 4.4 20:54:33 10° S 21:00:56 81° E 21:07:21 10° N
SL-14 R/B 4.1 20:57:11 10° N 21:00:01 41° NNE 21:00:01 41° NNE
SL-16 R/B 4.4 20:56:56 10° WSW 21:01:36 26° NW 21:06:19 10° N
CZ-2D R/B 4.5 21:00:07 22° SSW 21:02:10 41° W 21:05:53 10° NNW
ERBS 3.8 20:59:34 10° NW 21:01:57 32° N 21:01:57 32° N
H-2A R/B 3.7 21:06:03 24° NNE 21:06:03 24° NNE 21:08:23 10° N
Cosmos 1805 Rocket 4.2 21:00:28 10° N 21:03:44 42° NNE 21:03:44 42° NNE
Cosmos 2026 Rocket 3.8 20:58:44 10° N 21:04:52 81° E 21:07:12 41° SSE
CENTAUR R/B 2.4 21:01:26 10° SSW 21:07:31 73° SE 21:14:25 10° NE
Cosmos 1634 Rocket 4.0 21:03:23 10° S 21:09:38 83° W 21:15:53 10° N
SPOT 5 4.3 21:13:45 23° NNE 21:13:45 23° NNE 21:15:44 10° N
Cosmos 2221 4.3 21:21:28 22° NNE 21:21:28 22° NNE 21:23:04 10° NNE
Cosmos 2151 3.5 21:15:02 10° NNW 21:19:09 53° W 21:19:18 53° WSW
Envisat 2.9 21:19:33 76° NE 21:19:33 76° NE 21:24:24 10° N
ISS -0.3 21:16:39 10° WSW 21:16:49 11° WSW 21:16:49 11° WSW
Cosmos 2058 3.7 21:17:16 10° NNW 21:20:17 47° NNW 21:20:17 47° NNW
ALOS 4.4 21:21:57 10° SSW 21:25:46 24° W 21:29:35 10° NW
Gbstr 26 Del rocket 4.4 21:22:52 10° SW 21:25:35 36° SW 21:25:35 36° SW
H-2A R/B 4.1 21:32:02 15° NNE 21:32:02 15° NNE 21:33:25 10° NNE
Meteor 2-20 Rocket 4.4 21:32:45 10° N 21:38:24 69° NE 21:38:24 69° NE
Meteor 2-20 4.3 21:32:45 10° N 21:38:58 89° W 21:39:05 87° SSW
Cosmos 2369 Rocket 3.4 21:34:47 10° NW 21:39:57 37° WSW 21:41:35 31° SW
Cosmos 1943 Rocket 2.2 21:34:23 10° NNW 21:39:39 75° WNW 21:39:39 75° WNW
USA 215 3.5 21:37:00 26° NE 21:40:53 64° NNW 21:47:19 10° WSW
Cosmos 1943 3.7 21:37:46 10° SW 21:43:17 56° WNW 21:48:51 10° NNE
SeaSat 1 4.0 21:45:35 10° NNE 21:55:13 10° SW 21:55:16 10° SW
ERS-1 Rocket 3.9 21:55:23 43° W 21:55:23 43° W 21:59:51 10° NNW
Terra 4.4 22:14:49 14° N 22:14:49 14° N 22:15:30 10° N
ATLAS 5 CENTAUR R/B 4.5 22:22:26 10° WNW 22:25:57 18° NNW 22:29:28 11° NNE
CENTAUR R/B 4.0 22:53:03 10° W 22:58:51 34° NNW 23:05:20 10° NNE
